Simultaneous Nadir Overpasses (SNOs) Predictions

Prediction of SNOs between FY3D and METOP-C Satellite Orbit:

Table of predicted SNOs for the next 14.0 days since TLE Epoch: 2/24/2024
Index Date (FY3D) Time (FY3D) Lat,Lon (FY3D) SZA (FY3D ) Date (METOP-C) Time (METOP-C) Lat,Lon (METOP-C) SZA (METOP-C ) Distance(km) Time Diff (sec)
1 03/02/2024 20:57:52 76.15,-137.81 82.92 03/02/2024 20:58:57 76.13,-134.30 82.83 93.30 65
2 03/02/2024 21:48:35 -76.06, 29.84 97.20 03/02/2024 21:49:42 -76.02, 32.65 97.29 75.25 67
3 03/02/2024 22:39:15 75.79,-161.92 82.50 03/02/2024 22:40:27 75.74,-160.94 82.43 27.14 72
4 03/02/2024 23:29:58 -75.70, 5.71 97.62 03/02/2024 23:31:12 -75.64, 6.03 97.69 11.06 74
5 03/03/2024 00:20:42 75.61, 173.31 82.28 03/03/2024 00:21:51 75.63, 173.36 82.30 3.07 69
6 03/03/2024 01:11:27 -75.60, -19.37 97.74 03/03/2024 01:12:34 -75.62, -19.37 97.73 1.36 67
7 03/03/2024 02:02:13 75.61, 147.93 82.25 03/03/2024 02:03:13 75.61, 147.96 82.25 0.88 60
8 03/03/2024 02:52:58 -75.60, -44.75 97.77 03/03/2024 02:53:56 -75.60, -44.77 97.78 1.04 58
9 03/03/2024 03:43:44 75.61, 122.55 82.23 03/03/2024 03:44:35 75.59, 122.56 82.21 1.62 51
10 03/03/2024 04:34:29 -75.61, -70.13 97.79 03/03/2024 04:35:18 -75.58, -70.17 97.82 3.25 49
11 03/03/2024 05:25:15 75.61, 97.17 82.20 03/03/2024 05:25:56 75.62, 97.30 82.21 3.85 41
12 03/03/2024 06:16:00 -75.61, -95.51 97.82 03/03/2024 06:16:39 -75.61, -95.42 97.83 2.34 39
13 03/03/2024 07:06:46 75.61, 71.79 82.17 03/03/2024 07:07:18 75.60, 71.90 82.16 3.12 32
14 03/03/2024 07:57:31 -75.61,-120.89 97.85 03/03/2024 07:58:01 -75.59,-120.82 97.87 2.87 30
15 03/03/2024 08:48:16 75.56, 46.56 82.10 03/03/2024 08:48:40 75.58, 46.50 82.12 2.71 24
16 03/03/2024 09:39:01 -75.56,-146.12 97.92 03/03/2024 09:39:23 -75.57,-146.22 97.92 2.99 22
17 03/03/2024 10:29:47 75.56, 21.18 82.07 03/03/2024 10:30:02 75.56, 21.10 82.07 2.29 15
18 03/03/2024 11:20:32 -75.56,-171.50 97.95 03/03/2024 11:20:44 -75.60,-171.48 97.92 3.73 12
19 03/03/2024 12:11:18 75.56, -4.20 82.05 03/03/2024 12:11:23 75.59, -4.15 82.07 3.13 5
20 03/03/2024 13:02:03 -75.56, 163.12 97.97 03/03/2024 13:02:06 -75.58, 163.12 97.96 1.48 3
21 03/03/2024 13:52:49 75.57, -29.58 82.02 03/03/2024 13:52:45 75.57, -29.55 82.03 0.92 4
22 03/03/2024 14:43:34 -75.56, 137.74 98.00 03/03/2024 14:43:28 -75.56, 137.73 98.01 0.89 6
23 03/03/2024 15:34:20 75.57, -54.96 81.99 03/03/2024 15:34:07 75.55, -54.95 81.98 1.58 13
24 03/03/2024 16:25:05 -75.56, 112.36 98.03 03/03/2024 16:24:50 -75.54, 112.33 98.05 3.13 15
25 03/03/2024 17:15:51 75.57, -80.34 81.97 03/03/2024 17:15:29 75.53, -80.35 81.93 3.84 22
26 03/03/2024 18:06:36 -75.56, 86.98 98.05 03/03/2024 18:06:11 -75.57, 87.07 98.05 2.46 25
27 03/03/2024 18:57:22 75.57,-105.72 81.94 03/03/2024 18:56:50 75.56,-105.61 81.93 3.14 32
28 03/03/2024 19:48:07 -75.57, 61.60 98.08 03/03/2024 19:47:33 -75.55, 61.67 98.10 2.89 34
29 03/03/2024 20:38:52 75.52,-130.95 81.86 03/03/2024 20:38:12 75.54,-131.01 81.89 2.70 40
30 03/03/2024 21:29:37 -75.52, 36.37 98.16 03/03/2024 21:28:55 -75.53, 36.27 98.14 2.87 42
31 03/03/2024 22:20:23 75.52,-156.33 81.84 03/03/2024 22:19:34 75.52,-156.41 81.84 2.25 49
32 03/03/2024 23:11:08 -75.52, 10.99 98.18 03/03/2024 23:10:17 -75.51, 10.87 98.19 3.62 51
33 03/04/2024 00:01:54 75.52, 178.29 81.81 03/04/2024 00:00:55 75.55, 178.34 81.84 3.14 59
34 03/04/2024 00:52:39 -75.52, -14.39 98.21 03/04/2024 00:51:38 -75.54, -14.38 98.19 1.54 61
35 03/04/2024 01:43:25 75.52, 152.91 81.79 03/04/2024 01:42:17 75.53, 152.94 81.80 0.95 68
36 03/04/2024 02:34:10 -75.52, -39.77 98.24 03/04/2024 02:33:00 -75.52, -39.78 98.24 0.78 70
37 03/04/2024 03:24:54 75.43, 127.83 81.66 03/04/2024 03:23:41 75.42, 127.25 81.66 16.37 73
38 03/04/2024 04:15:37 -75.34, -64.56 98.46 03/04/2024 04:14:25 -75.36, -65.61 98.41 29.62 72
39 03/04/2024 05:06:17 75.06, 103.60 81.24 03/04/2024 05:05:10 75.06, 100.86 81.30 78.47 67
40 03/04/2024 05:57:00 -74.96, -88.81 98.88 03/04/2024 05:55:55 -74.96, -92.12 98.81 95.54 65



Historial Predications of SNOs between FY3D and METOP-C
